Retour au catalogue

SINOD-D 1

ActifRadio amateurVLEO
NORAD 40974·PAYLOAD·🇺🇸 United States

Lancé Oct 8, 2015 depuis Vandenberg Space Force Base

Loading…

Prochains Passages (prochaines 24 heures)

TLE

FraisSource: Space-Track

Époque: Sep 14, 2026, 08:20 UTC

1 40974U 15058L   26257.34759195  .00012041  00000-0  54292-3 0  9991
2 40974  64.7568 244.9182 0086060   9.1248 351.1415 15.18051312129140

Suivez SINOD-D 1 en temps réel avec AllMySat

Download on the App Store